Regional Weather Roundup
Issued by NWS

Home | Current Version | Previous Version | Graphics & Text | Print | Product List | Glossary On
Versions: 1 2 3 4 5 6 7 8 9 10 11 12 13 14 15 16 17 18 19 20 21 22 23 24 25 26 27
000
ASUS45 KPSR 242110
RWRAZ

ARIZONA HOURLY REGIONAL WEATHER ROUNDUP
NATIONAL WEATHER SERVICE PHOENIX AZ
200 PM MST SAT FEB 24 2018

NOTE: FAIR INDICATES FEW OR NO CLOUDS BELOW 12,000 FEET WITH NO
SIGNIFICANT WEATHER AND/OR OBSTRUCTIONS TO VISIBILITY.

AZZ001>003-036-242200-
NORTHWEST ARIZONA

CITY           SKY/WX    TMP DP  RH WIND       PRES   REMARKS
BULLHEAD CITY  SUNNY     57   1  10 S7        30.22F
KINGMAN        SUNNY     47  -2  13 W7        30.16F
$$

AZZ004>008-015-016-018-242200-
NORTH CENTRAL ARIZONA

CITY           SKY/WX    TMP DP  RH WIND       PRES   REMARKS
GRAND CANYON   SUNNY     27  11  51 SW13      30.07F WCI  16
WILLIAMS       SUNNY     32   7  34 W7        30.06F WCI  26
PRESCOTT       SUNNY     41  10  28 VRB5      30.12F
FLAGSTAFF      SUNNY     29  19  66 S12       30.06F WCI  19
PAYSON         SUNNY     41  14  33 W9        30.12F
PAGE           SUNNY     37   6  27 NW3       30.07F
$$

AZZ009>014-017-242200-
NORTHEAST ARIZONA

CITY           SKY/WX    TMP DP  RH WIND       PRES   REMARKS
WINSLOW        SUNNY     40  18  41 VRB5      30.10F
SAINT JOHNS    SUNNY     36  18  48 W9        30.09F WCI  29
WINDOW ROCK    SUNNY     34   9  35 W16       30.03F WCI  24
SHOW LOW       SUNNY     37  10  32 SW5G12    30.09F WCI  34
$$

AZZ540-542>544-546-548-242200-
GREATER PHOENIX AREA

CITY           SKY/WX    TMP DP  RH WIND       PRES   REMARKS
PHOENIX        SUNNY     57  19  22 W9        30.18F
BUCKEYE        SUNNY     55  14  19 W5        30.20F
GLENDALE       SUNNY     55  19  24 CALM      30.22F
LUKE AFB       SUNNY     56  20  24 SW6       30.18F
DEER VALLEY    SUNNY     54  14  20 VRB5      30.18F
SCOTTSDALE     SUNNY     56  21  25 MISG      30.19F
MESA-FALCON    SUNNY     55  19  24 SW6       30.20F
CHANDLER       SUNNY     55  19  24 SW7       30.20F
$$

AZZ539-553-242200-
SOUTHWEST MARICOPA COUNTY AND PINAL COUNTY

CITY           SKY/WX    TMP DP  RH WIND       PRES   REMARKS
CASA GRANDE    NOT AVBL
GILA BEND      FAIR      55  18  23 W5        30.20F
$$

AZZ503-504-507>509-242200-
SOUTHEAST ARIZONA

CITY           SKY/WX    TMP DP  RH WIND       PRES   REMARKS
TUCSON         SUNNY     53  19  26 W10G18    30.17F
DAVIS-MONTHAN  SUNNY     56  15  19 CALM      30.15F
RYAN FIELD     SUNNY     54  19  26 N6        30.18F
NOGALES        SUNNY     55  14  19 W12       30.11F
SIERRA VISTA   SUNNY     47   3  16 CALM      30.14F
DOUGLAS        SUNNY     52   3  13 N12G20    30.12F
SAFFORD        SUNNY     53   5  14 NW7G21    30.11F
$$

AZZ532-242200-
SOUTHWEST ARIZONA

CITY           SKY/WX    TMP DP  RH WIND       PRES   REMARKS
YUMA           SUNNY     61   6  11 VRB7      30.23F
$$

CAZ041-043-047-048-061-525>527-560>570-242200-
SOUTHERN CALIFORNIA

CITY           SKY/WX    TMP DP  RH WIND       PRES   REMARKS
DOWNTOWN L.A.  SUNNY     60  19  20 W6        30.26F
L.A. AIRPORT   SUNNY     59  29  31 SW15      30.27F
SAN DIEGO      SUNNY     63  21  20 W14       30.27F
BURBANK        SUNNY     60  10  14 SW6       30.23F
ONTARIO        MOSUNNY   57  13  17 W9        30.24F
RIVERSIDE      SUNNY     60  13  15 VRB3      30.24F
PALM SPRINGS   SUNNY     61   5  10 SE7       30.23F
EL CENTRO NAS  SUNNY     61   2   9 N6        30.26F
IMPERIAL       SUNNY     61   9  12 NW7       30.24F
BLYTHE         SUNNY     58   7  13 VRB3      30.23F
NEEDLES        SUNNY     59   0   9 VRB3      30.21F
$$

NVZ020-UTZ003-242200-
SOUTHERN NEVADA-UTAH

CITY           SKY/WX    TMP DP  RH WIND       PRES   REMARKS
LAS VEGAS      PTSUNNY   49   1  14 S9        30.15F
SALT LAKE CITY CLOUDY    30  15  53 S18       30.00F WCI  18
$$

NMZ009-TXZ055-242200-
NEW MEXICO-WEST TEXAS

CITY           SKY/WX    TMP DP  RH WIND       PRES   REMARKS
ALBUQUERQUE    MOSUNNY   42   5  21 NW12G23   30.02F
EL PASO        MOSUNNY   54   6  14 W10       30.04S
$$


........................KEY........................
SKY/WX - SKY CONDITION/WEATHER
TMP    - TEMPERATURE IN FAHRENHEIT
DP     - DEW POINT IN FAHRENHEIT
RH     - RELATIVE HUMIDITY IN PERCENT
WIND   - DIRECTION AND SPEED IN MILES PER HOUR (MPH)
VRB    - VARIABLE WIND DIRECTION
PRES   - MEAN SEA LEVEL PRESSURE IN INCHES OF MERCURY
         F - FALLING PRESSURE   R - RISING PRESSURE
         S - STEADY PRESSURE
VSB    - VISIBILITY IN MILES
HX     - HEAT INDEX IN FAHRENHEIT
WCI    - WIND CHILL INDEX IN FAHRENHEIT
TC     - TEMPERATURE IN CELSIUS WHICH IS ALSO KNOWN AS
         TEMPERATURE IN CENTIGRADE
AFB    - AIR FORCE BASE
         LUKE AFB IS LUKE AIR FORCE BASE
         DAVIS-MONTHAN IS DAVIS-MONTHAN AIR FORCE BASE
NAS    - NAVAL AIR STATION
         EL CENTRO NAS IS EL CENTRO NAVAL AIR STATION
N/A    - NOT AVAILABLE





USA.gov is the U.S. government's official web portal to all federal, state and local government web resources and services.